When you browse on this site, cookies collect data to enhance your experience and personalize the content and advertising you see.
Visit our Privacy Policy to learn more. By continuing to use the site, you agree to this use of cookies and data.
  • In Hungary
  • List of Countries
  • For 7 days
  • Water Temperature
  • Weather Map
  • News
  • Weather Widgets
  • user-avatar
    Login

    Hourly Weather Yavche

    Today, 6 December, Friday

    Time Temperature Precipitation Wind Pressure Humidity
    00:00 -1°C° 0 mm 1 mps 739 mmHg 66%
    01:00 -1°C° 0 mm 1 mps 739 mmHg 65%
    02:00 -1°C° 0 mm 1 mps 739 mmHg 66%
    03:00 -1°C° 0 mm 1 mps 738 mmHg 65%
    04:00 -1°C° 0 mm 1 mps 738 mmHg 63%
    05:00 -1°C° 0 mm 1 mps 737 mmHg 61%
    06:00 -1°C° 0 mm 1 mps 737 mmHg 59%
    07:00 -1°C° 0 mm 1 mps 737 mmHg 57%
    08:00 -3°C° 0 mm 2 mps 737 mmHg 56%
    09:00 0°C° 0 mm 1 mps 737 mmHg 54%
    10:00 +2°C° 0 mm 1 mps 737 mmHg 52%
    11:00 +3°C° 0 mm 1 mps 737 mmHg 51%
    12:00 +4°C° 0 mm 1 mps 737 mmHg 52%
    13:00 +4°C° 0 mm 1 mps 736 mmHg 54%
    14:00 +5°C° 0 mm 1 mps 736 mmHg 56%
    15:00 +3°C° 0 mm 1 mps 736 mmHg 56%
    16:00 +2°C° 0 mm 1 mps 735 mmHg 57%
    17:00 +1°C° 0 mm 1 mps 735 mmHg 57%
    18:00 +1°C° 0 mm 1 mps 735 mmHg 59%
    19:00 0°C° 0 mm 1 mps 735 mmHg 60%
    20:00 0°C° 0 mm 1 mps 735 mmHg 62%
    21:00 0°C° 0 mm 1 mps 735 mmHg 63%
    22:00 0°C° 0 mm 1 mps 735 mmHg 65%
    23:00 -2°C° 0 mm 2 mps 734 mmHg 66%

    Tomorrow, 7 December, Saturday

    Time Temperature Precipitation Wind Pressure Humidity
    00:00 -2°C° 0 mm 2 mps 734 mmHg 68%
    01:00 -2°C° 0 mm 2 mps 734 mmHg 69%
    02:00 -1°C° 0 mm 1 mps 734 mmHg 70%
    03:00 -3°C° 0 mm 2 mps 733 mmHg 72%
    04:00 -3°C° 0 mm 2 mps 733 mmHg 74%
    05:00 -3°C° 0 mm 2 mps 732 mmHg 76%
    06:00 -2°C° 0 mm 2 mps 732 mmHg 77%
    07:00 -2°C° 0 mm 2 mps 732 mmHg 78%
    08:00 -2°C° 0 mm 2 mps 732 mmHg 79%
    09:00 -1°C° 0 mm 2 mps 732 mmHg 77%
    10:00 +1°C° 0 mm 2 mps 732 mmHg 74%
    11:00 +3°C° 0 mm 2 mps 732 mmHg 72%
    12:00 +2°C° 0 mm 3 mps 732 mmHg 72%
    13:00 +3°C° 0 mm 3 mps 731 mmHg 71%
    14:00 +4°C° 0 mm 3 mps 731 mmHg 70%
    15:00 +3°C° 0 mm 3 mps 731 mmHg 73%
    16:00 +2°C° 0 mm 3 mps 731 mmHg 75%
    17:00 0°C° 0 mm 4 mps 731 mmHg 78%
    18:00 0°C° 0 mm 4 mps 731 mmHg 78%
    19:00 0°C° 0 mm 4 mps 732 mmHg 78%
    20:00 0°C° 0 mm 4 mps 732 mmHg 78%
    21:00 0°C° 0 mm 4 mps 732 mmHg 78%
    22:00 0°C° 0 mm 4 mps 732 mmHg 78%
    23:00 0°C° 0 mm 4 mps 732 mmHg 78%

    Day after tomorrow, 8 December, Sunday

    Time Temperature Precipitation Wind Pressure Humidity
    00:00 0°C° 0 mm 4 mps 732 mmHg 79%
    01:00 +1°C° 0 mm 4 mps 732 mmHg 79%
    02:00 +1°C° 0 mm 4 mps 732 mmHg 80%
    03:00 +1°C° 0 mm 4 mps 732 mmHg 80%
    04:00 +1°C° 0 mm 4 mps 732 mmHg 80%
    05:00 +1°C° 0 mm 4 mps 732 mmHg 80%
    06:00 +1°C° 0 mm 4 mps 732 mmHg 80%
    07:00 +1°C° 0 mm 4 mps 732 mmHg 81%
    08:00 0°C° 0 mm 4 mps 733 mmHg 81%
    09:00 +1°C° 0 mm 4 mps 733 mmHg 80%
    10:00 +3°C° 0 mm 4 mps 733 mmHg 78%
    11:00 +3°C° 0 mm 4 mps 733 mmHg 76%
    12:00 +4°C° 0 mm 4 mps 733 mmHg 75%
    13:00 +4°C° 0 mm 4 mps 733 mmHg 74%
    14:00 +4°C° 0 mm 3 mps 733 mmHg 72%
    15:00 +3°C° 0 mm 3 mps 732 mmHg 75%
    16:00 +2°C° 0 mm 3 mps 732 mmHg 78%
    17:00 +1°C° 0 mm 3 mps 732 mmHg 80%
    18:00 +1°C° 0 mm 3 mps 732 mmHg 81%
    19:00 +2°C° 0 mm 2 mps 732 mmHg 81%
    20:00 +2°C° 0 mm 2 mps 732 mmHg 82%
    21:00 +1°C° 0 mm 3 mps 731 mmHg 83%
    22:00 +1°C° 0 mm 3 mps 731 mmHg 83%
    23:00 +1°C° 0 mm 3 mps 731 mmHg 83%

    9 December, Monday

    Time Temperature Precipitation Wind Pressure Humidity
    00:00 +1°C° 0 mm 3 mps 730 mmHg 83%
    01:00 +2°C° 0 mm 3 mps 730 mmHg 83%
    02:00 +2°C° 0 mm 3 mps 729 mmHg 83%
    03:00 +2°C° 0 mm 3 mps 729 mmHg 82%
    04:00 +2°C° 0 mm 3 mps 728 mmHg 81%
    05:00 +3°C° 0 mm 3 mps 728 mmHg 80%
    06:00 +3°C° 0 mm 3 mps 728 mmHg 79%
    07:00 +3°C° 0 mm 3 mps 727 mmHg 79%
    08:00 +3°C° 0 mm 3 mps 727 mmHg 78%
    09:00 +4°C° 0 mm 3 mps 727 mmHg 77%
    10:00 +5°C° 0 mm 3 mps 727 mmHg 75%
    11:00 +5°C° 0 mm 3 mps 727 mmHg 73%
    12:00 +5°C° 0 mm 3 mps 726 mmHg 74%
    13:00 +7°C° 0 mm 3 mps 726 mmHg 74%
    14:00 +7°C° 0 mm 3 mps 726 mmHg 74%
    15:00 +7°C° 0 mm 3 mps 726 mmHg 76%
    16:00 +5°C° 0 mm 3 mps 725 mmHg 78%
    17:00 +6°C° 0 mm 2 mps 725 mmHg 80%
    18:00 +5°C° 0.1 mm 2 mps 725 mmHg 82%
    19:00 +5°C° 0.1 mm 2 mps 725 mmHg 83%
    20:00 +6°C° 0.1 mm 1 mps 725 mmHg 85%
    21:00 +5°C° 0 mm 2 mps 725 mmHg 85%
    22:00 +5°C° 0 mm 2 mps 725 mmHg 85%
    23:00 +5°C° 0 mm 2 mps 725 mmHg 85%

    10 December, Tuesday

    Time Temperature Precipitation Wind Pressure Humidity
    00:00 +5°C° 0 mm 2 mps 724 mmHg 86%
    01:00 +4°C° 0 mm 2 mps 724 mmHg 87%
    02:00 +4°C° 0 mm 2 mps 724 mmHg 88%
    03:00 +4°C° 0 mm 2 mps 724 mmHg 88%
    04:00 +4°C° 0 mm 2 mps 724 mmHg 87%
    05:00 +5°C° 0 mm 2 mps 724 mmHg 87%
    06:00 +5°C° 0 mm 2 mps 724 mmHg 88%
    07:00 +4°C° 0 mm 3 mps 724 mmHg 89%
    08:00 +4°C° 0 mm 3 mps 725 mmHg 90%
    09:00 +4°C° 0 mm 3 mps 725 mmHg 86%
    10:00 +4°C° 0 mm 3 mps 726 mmHg 82%
    11:00 +5°C° 0 mm 3 mps 726 mmHg 78%
    12:00 +5°C° 0 mm 3 mps 727 mmHg 74%
    13:00 +7°C° 0 mm 3 mps 727 mmHg 69%
    14:00 +6°C° 0 mm 4 mps 727 mmHg 64%
    15:00 +5°C° 0 mm 3 mps 728 mmHg 69%
    16:00 +4°C° 0 mm 3 mps 728 mmHg 73%
    17:00 +3°C° 0 mm 3 mps 729 mmHg 77%
    18:00 +3°C° 0 mm 3 mps 729 mmHg 80%
    19:00 +2°C° 0 mm 3 mps 730 mmHg 83%
    20:00 +1°C° 0 mm 4 mps 731 mmHg 86%
    21:00 +1°C° 0 mm 4 mps 731 mmHg 86%
    22:00 0°C° 0 mm 4 mps 732 mmHg 86%
    23:00 0°C° 0 mm 4 mps 732 mmHg 87%

    11 December, Wednesday

    Time Temperature Precipitation Wind Pressure Humidity
    00:00 0°C° 0.1 mm 4 mps 733 mmHg 88%
    01:00 0°C° 0.1 mm 4 mps 733 mmHg 90%
    02:00 -1°C° 0.1 mm 5 mps 734 mmHg 91%
    03:00 -1°C° 0 mm 5 mps 734 mmHg 89%
    04:00 -1°C° 0 mm 4 mps 734 mmHg 86%
    05:00 -1°C° 0 mm 4 mps 735 mmHg 84%
    06:00 -1°C° 0 mm 4 mps 735 mmHg 85%
    07:00 -2°C° 0 mm 4 mps 735 mmHg 87%
    08:00 -2°C° 0 mm 4 mps 736 mmHg 88%
    09:00 -2°C° 0 mm 4 mps 736 mmHg 86%
    10:00 -1°C° 0 mm 3 mps 736 mmHg 83%
    11:00 0°C° 0 mm 3 mps 736 mmHg 81%
    12:00 +1°C° 0 mm 2 mps 736 mmHg 79%
    13:00 +2°C° 0 mm 1 mps 735 mmHg 77%
    14:00 +2°C° 0 mm 1 mps 735 mmHg 75%
    15:00 +2°C° 0 mm 1 mps 735 mmHg 79%
    16:00 -1°C° 0 mm 2 mps 735 mmHg 83%
    17:00 -2°C° 0 mm 2 mps 735 mmHg 87%
    18:00 -2°C° 0 mm 2 mps 735 mmHg 88%
    19:00 -2°C° 0 mm 2 mps 735 mmHg 89%
    20:00 -2°C° 0 mm 2 mps 734 mmHg 90%
    21:00 -2°C° 0 mm 3 mps 734 mmHg 89%
    22:00 -2°C° 0 mm 3 mps 734 mmHg 89%
    23:00 -2°C° 0 mm 3 mps 734 mmHg 88%
    Show more